Regional Weather Roundup
Issued by NWS

Home | Current Version | Previous Version | Graphics & Text | Print | Product List | Glossary On
Versions: 1 2 3 4 5 6 7 8 9 10 11 12 13 14 15 16 17 18 19 20 21 22 23 24 25 26 27
000
ASUS45 KBOU 260907
RWRCO

WEATHER ROUNDUP FOR COLORADO
NATIONAL WEATHER SERVICE DENVER/BOULDER CO
300 AM MDT MON JUN 26 2017

NOTE: "FAIR" INDICATES FEW OR NO CLOUDS BELOW 12000 FEET WITH NO
SIGNIFICANT WEATHER AND/OR OBSTRUCTIONS TO VISIBILITY.

COZ001>005-013-030-031-261000-
...NORTHWEST COLORADO...

CITY           SKY/WX    TMP DP  RH WIND       PRES   REMARKS
CRAIG          FAIR      43  34  70 CALM      30.31F
HAYDEN         FAIR      52  30  43 E13       30.33S
MEEKER         FAIR      48  33  56 E7        30.31F
RABBIT EARS PA FAIR      52  27  37 MISG      30.59S
STEAMBOAT SPGS FAIR      45  34  64 CALM      30.36S
WALDEN         FAIR      37  28  70 SE7       30.45F
$$

COZ006>008-011-261000-
...WEST CENTRAL VALLEYS...

CITY           SKY/WX    TMP DP  RH WIND       PRES   REMARKS
GRAND JUNCTION FAIR      74  30  19 CALM      30.14R
MONTROSE       FAIR      61  29  29 SE9       30.25R
EAGLE          FAIR      51  30  44 CALM      30.37S
RIFLE          FAIR      58  29  33 S5        30.24S
DELTA          FAIR      65  29  26 E3        30.19S
NUCLA          FAIR      61  27  27 SE3       30.25S
$$

COZ017>023-064>068-261000-
...SOUTHWEST COLORADO...

CITY           SKY/WX    TMP DP  RH WIND       PRES   REMARKS
DURANGO        FAIR      53  36  52 N6        30.31R
CORTEZ         FAIR      50  33  52 SE5       30.23R
PAGOSA SPRINGS FAIR      53  39  59 CALM      30.40R
TELLURIDE      FAIR      54  25  32 E3        30.49R
WOLF CREEK PAS FAIR      45  34  65 W3        30.72S
$$

COZ009-010-012-014-032>034-037-058>063-261000-
...CENTRAL COLORADO...

CITY           SKY/WX    TMP DP  RH WIND       PRES   REMARKS
ASPEN          FAIR      49  32  52 S6        30.40S
BUENA VISTA    FAIR      58  50  76 S5        30.45S
COPPER MTN     FAIR      48  27  43 CALM      30.69S
BERTHOUD PASS  FAIR      37  27  65 NW10      30.70F
COTTONWOOD PAS MOCLDY    54  50  87 E6        30.56S
GUNNISON       FAIR      47  33  58 CALM      30.41R
KREMMLING      NOT AVBL
LEADVILLE      MOCLDY    44  37  76 NE5       30.54F
SALIDA         CLOUDY    60  54  80 CALM      30.50R
SUNLIGHT       FAIR      46  23  39 NE5       30.63S
WILKERSON PASS FOG       45  43  93 SW3       30.67S VSB 1/4
$$

COZ069>075-261000-
...SAN LUIS VALLEY/SANGRE DE CRISTO MOUNTAINS...

CITY           SKY/WX    TMP DP  RH WIND       PRES   REMARKS
ALAMOSA        FAIR      54  47  77 SE10      30.38R
DEL NORTE      FAIR      48  39  70 W8        30.43S
LA VETA PASS   FOG       46  45  93 MISG      30.69S VSB<1/4
SAGUACHE       FAIR      54  43  66 CALM      30.43R
$$

COZ035-036-038>040-261000-
...NORTHERN COLORADO FRONT RANGE...

CITY           SKY/WX    TMP DP  RH WIND       PRES   REMARKS
DENVER INTL AP FAIR      57  53  86 S12       30.29F
DMNS CITY PARK   N/A     60  53  79 E9        30.28F
AURORA         PTCLDY    57  56  97 S9        30.31F
FRONT RANGE AP FAIR      59  54  82 S13G18    30.30F
ERIE MUNI ARPT FAIR      55  52  89 CALM      30.28S
BOULDER MUN AP FAIR      57  52  82 N3        30.28S
CENTENNIAL     FAIR      57  54  89 S8        30.32F
BROOMFIELD     FAIR      57  52  82 CALM      30.30F
FORT COLLINS   FAIR      57  52  83 NW6       30.28F
LONGMONT       FAIR      54  50  86 CALM      30.29F
$$

COZ041-046-047-076>085-087-088-261000-
...PIKES PEAK/PALMER DIVIDE AND SOUTHERN FOOTHILLS...

CITY           SKY/WX    TMP DP  RH WIND       PRES   REMARKS
COLO. SPRINGS  LGT RAIN  59  58  96 SE6       30.39S
A. F. ACADEMY  CLOUDY    58  58 100 S7        30.39S
SCHRIEVER AFB  FOG       58  57  97 E8        30.39S VSB 3/8
CHEYENNE MTN     N/A     55  55 100 SE6       30.36F
ELLICOTT       CLOUDY   N/A N/A N/A SE9       30.37S
FALCON         RAIN      56  56  99 S7        30.42S
FORT CARSON    CLOUDY    59  59 100 E5        30.36S
LIMON          CLOUDY    56  55  97 SE3       30.34F
MONUMENT HILL  CLOUDY    54  52  94 S9        30.41F
CANON CITY     CLOUDY    63  63 100 E6        30.34S FOG
WALSENBURG     CLOUDY    61  59  94 NE5       30.36F
TRINIDAD       CLOUDY    60  57  89 NE3       30.35S FOG
$$

COZ042>045-048>051-090-091-261000-
...NORTHEAST COLORADO...

CITY           SKY/WX    TMP DP  RH WIND       PRES   REMARKS
GREELEY ARPT   NOT AVBL
AKRON          FAIR      56  53  90 S10       30.27F
BURLINGTON     CLOUDY    59  57  93 S6        30.29F
WRAY           FAIR     N/A N/A N/A SW5       30.25S
YUMA           FAIR      50  50 100 SW6       30.25F
STERLING       FAIR      52  52 100 CALM      30.24F
HOLYOKE        NOT AVBL
FORT MORGAN    FAIR      56  53  89 SW6       30.27F
$$

COZ086-089-092>099-261000-
...SOUTHEAST COLORADO...

CITY           SKY/WX    TMP DP  RH WIND       PRES   REMARKS
PUEBLO         CLOUDY    63  60  90 SE9       30.31S
LA JUNTA       CLOUDY    62  55  77 E9        30.28F
LAMAR          CLOUDY    61  54  77 E5        30.27S
SPRINGFIELD      N/A     61  59  93 SE8       30.28F
$$




USA.gov is the U.S. government's official web portal to all federal, state and local government web resources and services.